This is the latest recevied weather packets stored in our database for station/object KI5RAB. If no packets are shown the sender has not sent any weather packets the latest 10 day(s).
| Time | Temp. | Humidity | Pressure | Rain* | Wind** | Luminosity | Snow |
|---|---|---|---|---|---|---|---|
| 1777670950 | 16.11° C | 89% | 1014.7 hPa | 0 mm | - | 104 W/m² | - |
| 1777670647 | 16.67° C | 89% | 1014.7 hPa | 0 mm | - | 112 W/m² | - |
| 1777670343 | 16.67° C | 89% | 1014.9 hPa | 0 mm | - | 102 W/m² | - |
| 1777670041 | 16.67° C | 89% | 1015 hPa | 0 mm | - | 108 W/m² | - |
| 1777669739 | 16.67° C | 89% | 1014.9 hPa | 0 mm | - | 94 W/m² | - |
| 1777669435 | 16.67° C | 89% | 1014.8 hPa | 0 mm | - | 142 W/m² | - |
| 1777669132 | 16.67° C | 89% | 1014.7 hPa | 0 mm | - | 136 W/m² | - |
| 1777668828 | 17.22° C | 89% | 1014.8 hPa | 0 mm | - | 84 W/m² | - |
| 1777668525 | 17.22° C | 90% | 1014.8 hPa | 0 mm | - | 89 W/m² | - |
| 1777668221 | 17.78° C | 90% | 1014.7 hPa | 0 mm | - | 119 W/m² | - |
| 1777667918 | 17.22° C | 91% | 1014.9 hPa | 0 mm | - | 270 W/m² | - |
| 1777667615 | 17.22° C | 91% | 1014.8 hPa | 0 mm | - | 252 W/m² | - |
| 1777667312 | 17.22° C | 91% | 1014.7 hPa | 0 mm | - | 215 W/m² | - |
| 1777667009 | 17.22° C | 90% | 1014.7 hPa | 0 mm | - | 392 W/m² | - |
| 1777666705 | 17.22° C | 90% | 1014.3 hPa | 0 mm | - | 234 W/m² | - |
| 1777666402 | 17.22° C | 88% | 1014.6 hPa | 0 mm | - | 121 W/m² | - |
| 1777666094 | 17.78° C | 87% | 1014.4 hPa | 0 mm | - | 107 W/m² | - |
| 1777665791 | 17.78° C | 86% | 1014.6 hPa | 0 mm | - | 78 W/m² | - |
| 1777665489 | 18.33° C | 85% | 1014.9 hPa | 0 mm | - | 49 W/m² | - |
| 1777665184 | 18.89° C | 84% | 1014 hPa | 0 mm | - | 94 W/m² | - |
| 1777664880 | 18.89° C | 83% | 1013.9 hPa | 0 mm | - | 181 W/m² | - |
| 1777664576 | 18.89° C | 83% | 1013.6 hPa | 0 mm | - | 328 W/m² | - |
| 1777664273 | 19.44° C | 82% | 1013.4 hPa | 0 mm | - | 330 W/m² | - |
| 1777663971 | 20° C | 81% | 1013.3 hPa | 0 mm | - | 401 W/m² | - |
| 1777663668 | 20° C | 82% | 1013.4 hPa | 0 mm | - | 839 W/m² | - |
* Rain latest hour (hover to see other rain measurements)
** Current wind speed in m/s (hover to see current wind gust speed)